Flag for Germany Weather past 2 weeks in Leverkusen, North Rhine-Westphalia, Germany

Now
61 °F

Light rain. Broken clouds.


Feels Like: 61 °F
Forecast: 58 / 71 °F
Wind: 6 mph from East

Location: Koeln / Bonn

Current Time: Jul 24, 2014 at 10:56:49 PM

Latest Report: Jul 24, 2014 at 10:20 PM


Visibility: N/A

Pressure: 29.95 "Hg

Humidity: 88%

Dew point: 57 °F

Location of LeverkusenLocation

Historic Weather in Leverkusen — Graph

°F

Leverkusen temperature yesterday

Maximum temperature yesterday: 84 °F (at 1:50 PM)
Minimum temperature yesterday: 63 °F (at 3:50 AM)
Average temperature yesterday: 72 °F

Past Weeks' High & Low Weather Summary

 TemperatureHumidityPressure
High91 °F (Jul 19, 2:50 PM)100% (Jul 9, 9:20 PM)30.18 "Hg (Jul 9, 9:20 PM)
Low55 °F (Jul 15, 4:50 AM)26% (Jul 19, 2:50 PM)29.68 "Hg (Jul 9, 9:20 PM)
Average70 °F75%29.95 "Hg
* Reported Jul 9 9:20 PM — Jul 24 9:50 PM, Leverkusen, Weather by CustomWeather, © 2014

Note: Actual official high and low records may vary slightly from our data, if they occured in-between our weather recording intervals... More about our weather records

Advertising

Leverkusen weather history for previous 24 hours

 ConditionsComfort  
Time TempWeatherWind HumidityBarometerVisibility
9:50 PM
Jul 24
61 °FRain showers. Broken clouds.14 mph88%29.98 "HgN/A
9:20 PM63 °FSprinkles. Broken clouds.8 mph83%29.98 "HgN/A
8:50 PM64 °FThundershowers. Broken clouds.1 mph78%29.98 "HgN/A
8:20 PM64 °FThundershowers. Broken clouds.6 mph73%29.95 "HgN/A
7:50 PM66 °FThundershowers. Broken clouds.3 mph64%29.95 "HgN/A
7:20 PM68 °FScattered showers. Broken clouds.10 mph56%29.95 "HgN/A
6:50 PM70 °FThundershowers. Broken clouds.15 mph53%29.95 "HgN/A
6:20 PM70 °FThundershowers. Broken clouds.7 mph60%29.95 "HgN/A
5:50 PM72 °FScattered showers. Broken clouds.6 mph53%29.95 "HgN/A
5:20 PM73 °FScattered showers. Scattered clouds.6 mph57%29.95 "HgN/A
4:50 PM72 °FPartly sunny.7 mph57%29.95 "HgN/A
4:20 PM73 °FScattered showers. Partly sunny.2 mph65%29.95 "HgN/A
3:50 PM73 °FScattered showers. Partly sunny.5 mph61%29.95 "HgN/A
3:20 PM73 °FScattered showers. Scattered clouds.7 mph53%29.92 "HgN/A
2:50 PM75 °FThundershowers. Scattered clouds.3 mph57%29.92 "HgN/A
2:20 PM73 °FThundershowers. Scattered clouds.3 mph61%29.95 "HgN/A
1:50 PM75 °FScattered clouds.9 mph54%29.95 "HgN/A
1:20 PM79 °FScattered clouds.7 mph42%29.95 "HgN/A
12:50 PM79 °FPassing clouds.7 mph45%29.95 "HgN/A
12:20 PM79 °FPassing clouds.7 mph42%29.95 "HgN/A
11:50 AM77 °FPassing clouds.3 mph51%29.95 "HgN/A
11:20 AM75 °FPassing clouds.5 mph54%29.95 "HgN/A
10:50 AM75 °FSunny.5 mph54%29.95 "Hg10 mi
10:20 AM73 °FSunny.3 mph57%29.98 "Hg10 mi
9:50 AM72 °FSunny.3 mph61%29.98 "Hg10 mi
9:20 AM72 °FSunny.3 mph65%29.98 "Hg10 mi
8:50 AM68 °FSunny.6 mph69%29.98 "Hg10 mi
8:20 AM66 °FSunny.5 mph73%29.95 "Hg10 mi
7:50 AM64 °FSunny.3 mph83%29.95 "Hg10 mi
7:20 AM63 °FSunny.3 mph88%29.95 "Hg10 mi
6:50 AM61 °FSunny.5 mph88%29.95 "Hg10 mi
6:20 AM59 °FClear.1 mph88%29.95 "Hg10 mi
5:50 AM57 °FFog.1 mph94%29.95 "HgN/A
5:20 AM59 °FFog.2 mph94%29.95 "HgN/A
4:50 AM61 °FClear.5 mph88%29.95 "Hg10 mi
4:20 AM61 °FFog.2 mph88%29.95 "HgN/A
3:50 AM61 °FFog.2 mph88%29.98 "HgN/A
3:20 AM63 °FFog.1 mph88%29.98 "HgN/A
2:50 AM63 °FFog.1 mph88%29.98 "HgN/A
2:20 AM64 °FFog.2 mph83%29.98 "HgN/A
1:50 AM66 °FClear.3 mph78%29.98 "Hg10 mi
1:20 AM68 °FClear.6 mph73%29.98 "Hg10 mi
12:50 AM66 °FClear.2 mph78%29.98 "Hg10 mi
12:20 AM66 °FClear.3 mph83%29.98 "Hg10 mi
11:50 PM
Jul 23
66 °FClear.6 mph83%30.01 "Hg10 mi
11:20 PM68 °FClear.5 mph83%30.01 "Hg10 mi
10:50 PM70 °FClear.6 mph78%30.01 "Hg10 mi
10:20 PM72 °FSunny.5 mph73%30.01 "Hg10 mi
Weather by CustomWeather, © 2014

See weather overviewHow to use our weather pages